Regional Weather Roundup
Issued by NWS

Home | Current Version | Previous Version | Graphics & Text | Print | Product List | Glossary On
Versions: 1 2 3 4 5 6 7 8 9 10 11 12 13 14 15 16 17 18 19 20 21 22 23 24 25 26 27 28 29 30 31 32 33 34 35 36 37 38 39 40 41 42 43 44 45 46 47 48 49 50
000
ASUS45 KABQ 041501
RWRNM
WEATHER ROUNDUP FOR NEW MEXICO
NATIONAL WEATHER SERVICE ALBUQUERQUE NM
800 AM MST WED MAR 04 2015

NOTE: "FAIR" MEANS FEW OR NO CLOUDS BELOW 12,000 FEET AGL WITH NO
       SIGNIFICANT WEATHER OR OBSTRUCTIONS TO VISION.

      THIS PRODUCT IS RELEASED AS TWO VERSIONS.  ONE VERSION NEAR
      THE TOP OF THE HOUR CONTAINING PRELIMINARY DATA FROM ALBUQUERQUE
      AND OTHER STATIONS.  A FINAL VERSION WITH ADDITIONAL DATA IS
      ISSUED ABOUT 10 MINUTES AFTER THE HOUR.

NMZ501-503-504-510>518-041600-
NORTHWEST PLATEAU/NORTHCENTRAL MOUNTAINS

CITY           SKY/WX    TMP DP  RH WIND       PRES   REMARKS
FARMINGTON     CLOUDY    30  28  92 W6        29.95R WCI  24
SANTA FE       SUNNY     30  24  78 CALM      29.91R
TAOS           MOSUNNY   25  19  80 N3        29.92R
ANGEL FIRE     FAIR      22  15  75 SW3       29.89R

$$
NMZ402-403-502-505>509-041600-
WESTCENTRAL MOUNTAINS/SOUTHWEST MOUNTAINS

CITY           SKY/WX    TMP DP  RH WIND       PRES   REMARKS
GALLUP         FOG       26  24  92 CALM      29.97R VSB 1/2
GRANTS         SUNNY     28  25  89 NW9       29.96R WCI  19
SILVER CITY    MOSUNNY   39  27  60 NW8       29.94R WCI  34

$$
NMZ407-409-411-412-041600-
SOUTHERN DESERTS

CITY           SKY/WX    TMP DP  RH WIND       PRES   REMARKS
DEMING         SUNNY     39  31  72 CALM      29.94R
HOLLOMAN AFB   SUNNY     49  43  80 S9        29.89R
ALAMOGORDO     SUNNY     46  41  81 S6        29.92R
T OR C         MOSUNNY   43  27  53 N7        29.92R

$$
NMZ519>523-041600-
CENTRAL VALLEYS/CENTRAL HIGHLANDS

CITY           SKY/WX    TMP DP  RH WIND       PRES   REMARKS
ALBUQUERQUE    MOSUNNY   37  28  70 N6        29.94R WCI  32
DOUBLE EAGLE   MOSUNNY   32  27  80 CALM      29.94R
MORIARTY ARPT  FAIR      32  26  76 NW5       29.94R WCI  28
CLINES CORNERS SUNNY     33  24  69 W12       29.89R WCI  24
BELEN          CLOUDY    38  29  69 NW5       29.95R WCI  35
SOCORRO        NOT AVBL

$$
NMZ524>526-539-540-041600-
SOUTHCENTRAL MOUNTAINS

CITY           SKY/WX    TMP DP  RH WIND       PRES   REMARKS
RUIDOSO        NOT AVBL

$$
NMZ527>531-041600-
NORTHEAST HIGHLANDS/NORTHEAST PLAINS

CITY           SKY/WX    TMP DP  RH WIND       PRES   REMARKS
LAS VEGAS      FOG       23  21  92 NE5       29.91R VSB<1/4 WCI  17
RATON          LGT SNOW  26  23  88 NE18      29.92R FOG     WCI  13
CLAYTON        CLOUDY    19  17  92 NE16      30.04R FOG     WCI   4

$$
NMZ532>537-041600-
EASTCENTRAL PLAINS

CITY           SKY/WX    TMP DP  RH WIND       PRES   REMARKS
TUCUMCARI      CLOUDY    28  25  88 NE22      30.03R FOG     WCI  14
CANNON AFB     NOT AVBL
CLOVIS AIRPORT CLOUDY    28  27  93 NE18      30.01R VSB 1/2 WCI  16

$$
NMZ028-029-538-041600-
SOUTHEAST PLAINS

CITY           SKY/WX    TMP DP  RH WIND       PRES   REMARKS
ROSWELL        PTSUNNY   41  36  82 N20       29.92R
ARTESIA        PTSUNNY   45  43  93 N12G18    29.90R
CARLSBAD       LGT RAIN  51  42  71 SE3       29.89R
HOBBS          LGT RAIN  48  48 100 W10       29.94R


$$


USA.gov is the U.S. government's official web portal to all federal, state and local government web resources and services.